• In Netherlands
  • List of Countries
  • For 7 days
  • Water Temperature
  • Satellite Maps
  • Weather Map
  • Weather Widgets
  • user-avatar
    Login

    Hourly Weather Sherpur

    Today, 18 January, Wednesday

    Time Temperature Precipitation Wind Pressure Humidity
    00:00 -4°C° 0.1 mm 1 mps 605 mmHg 72%
    01:00 -6°C° 0.1 mm 1 mps 605 mmHg 72%
    02:00 -6°C° 0.1 mm 1 mps 605 mmHg 73%
    03:00 -6°C° 0 mm 1 mps 605 mmHg 73%
    04:00 -7°C° 0 mm 1 mps 605 mmHg 74%
    05:00 -6°C° 0 mm 1 mps 604 mmHg 71%
    06:00 -6°C° 0 mm 1 mps 605 mmHg 71%
    07:00 -6°C° 0 mm 1 mps 605 mmHg 70%
    08:00 -6°C° 0 mm 1 mps 605 mmHg 70%
    09:00 -3°C° 0 mm 1 mps 606 mmHg 64%
    10:00 -2°C° 0 mm 1 mps 607 mmHg 58%
    11:00 +1°C° 0 mm 1 mps 608 mmHg 50%
    12:00 +1°C° 0 mm 1 mps 608 mmHg 50%
    13:00 +1°C° 0 mm 1 mps 608 mmHg 49%
    14:00 +2°C° 0 mm 1 mps 608 mmHg 49%
    15:00 +1°C° 0 mm 1 mps 608 mmHg 51%
    16:00 0°C° 0 mm 1 mps 608 mmHg 54%
    17:00 0°C° 0 mm 1 mps 608 mmHg 56%
    18:00 -2°C° 0 mm 1 mps 608 mmHg 60%
    19:00 -4°C° 0 mm 1 mps 607 mmHg 64%
    20:00 -7°C° 0 mm 0 mps 607 mmHg 68%
    21:00 -7°C° 0 mm 0 mps 607 mmHg 70%
    22:00 -8°C° 0 mm 0 mps 607 mmHg 71%
    23:00 -9°C° 0 mm 0 mps 607 mmHg 73%

    Tomorrow, 19 January, Thursday

    Time Temperature Precipitation Wind Pressure Humidity
    00:00 -9°C° 0 mm 0 mps 606 mmHg 73%
    01:00 -9°C° 0 mm 0 mps 606 mmHg 74%
    02:00 -9°C° 0 mm 1 mps 606 mmHg 74%
    03:00 -10°C° 0 mm 1 mps 606 mmHg 74%
    04:00 -10°C° 0 mm 1 mps 606 mmHg 74%
    05:00 -10°C° 0 mm 1 mps 606 mmHg 74%
    06:00 -10°C° 0 mm 1 mps 606 mmHg 72%
    07:00 -10°C° 0 mm 1 mps 607 mmHg 70%
    08:00 -10°C° 0 mm 1 mps 607 mmHg 68%
    09:00 -7°C° 0 mm 1 mps 608 mmHg 59%
    10:00 -2°C° 0 mm 1 mps 610 mmHg 50%
    11:00 +1°C° 0 mm 1 mps 611 mmHg 41%
    12:00 +1°C° 0 mm 1 mps 611 mmHg 39%
    13:00 +2°C° 0 mm 1 mps 611 mmHg 38%
    14:00 +3°C° 0 mm 1 mps 610 mmHg 36%
    15:00 +1°C° 0 mm 1 mps 610 mmHg 39%
    16:00 0°C° 0 mm 1 mps 609 mmHg 42%
    17:00 -1°C° 0 mm 1 mps 609 mmHg 45%
    18:00 -3°C° 0 mm 1 mps 608 mmHg 48%
    19:00 -6°C° 0 mm 1 mps 608 mmHg 51%
    20:00 -7°C° 0 mm 1 mps 608 mmHg 54%
    21:00 -8°C° 0 mm 1 mps 608 mmHg 54%
    22:00 -8°C° 0 mm 1 mps 608 mmHg 54%
    23:00 -8°C° 0 mm 1 mps 608 mmHg 54%

    Day after tomorrow, 20 January, Friday

    Time Temperature Precipitation Wind Pressure Humidity
    00:00 -8°C° 0 mm 1 mps 607 mmHg 54%
    01:00 -9°C° 0 mm 1 mps 607 mmHg 54%
    02:00 -9°C° 0 mm 1 mps 607 mmHg 54%
    03:00 -9°C° 0 mm 1 mps 607 mmHg 53%
    04:00 -9°C° 0 mm 1 mps 607 mmHg 53%
    05:00 -9°C° 0 mm 1 mps 606 mmHg 53%
    06:00 -9°C° 0 mm 1 mps 607 mmHg 52%
    07:00 -9°C° 0 mm 1 mps 607 mmHg 51%
    08:00 -8°C° 0 mm 1 mps 607 mmHg 50%
    09:00 -4°C° 0 mm 1 mps 608 mmHg 44%
    10:00 -1°C° 0 mm 1 mps 610 mmHg 38%
    11:00 +2°C° 0 mm 1 mps 611 mmHg 32%
    12:00 +3°C° 0 mm 1 mps 610 mmHg 31%
    13:00 +4°C° 0 mm 1 mps 610 mmHg 31%
    14:00 +3°C° 0 mm 2 mps 610 mmHg 30%
    15:00 +2°C° 0 mm 2 mps 609 mmHg 33%
    16:00 +1°C° 0 mm 2 mps 608 mmHg 36%
    17:00 +1°C° 0 mm 1 mps 608 mmHg 38%
    18:00 0°C° 0 mm 1 mps 608 mmHg 39%
    19:00 -2°C° 0 mm 1 mps 608 mmHg 41%
    20:00 -3°C° 0 mm 1 mps 608 mmHg 42%
    21:00 -3°C° 0 mm 1 mps 608 mmHg 42%
    22:00 -3°C° 0 mm 1 mps 608 mmHg 42%
    23:00 -5°C° 0 mm 2 mps 608 mmHg 43%

    21 January, Saturday

    Time Temperature Precipitation Wind Pressure Humidity
    00:00 -5°C° 0 mm 2 mps 608 mmHg 46%
    01:00 -5°C° 0 mm 2 mps 607 mmHg 49%
    02:00 -6°C° 0 mm 2 mps 607 mmHg 52%
    03:00 -4°C° 0 mm 1 mps 607 mmHg 54%
    04:00 -6°C° 0 mm 1 mps 606 mmHg 57%
    05:00 -6°C° 0 mm 1 mps 606 mmHg 60%
    06:00 -6°C° 0 mm 1 mps 606 mmHg 61%
    07:00 -6°C° 0 mm 1 mps 607 mmHg 62%
    08:00 -6°C° 0 mm 1 mps 607 mmHg 63%
    09:00 -2°C° 0 mm 1 mps 608 mmHg 57%
    10:00 0°C° 0 mm 1 mps 609 mmHg 50%
    11:00 +2°C° 0 mm 2 mps 610 mmHg 44%
    12:00 +2°C° 0 mm 2 mps 610 mmHg 44%
    13:00 +3°C° 0 mm 2 mps 609 mmHg 43%
    14:00 +3°C° 0 mm 2 mps 609 mmHg 43%
    15:00 +3°C° 0 mm 2 mps 609 mmHg 45%
    16:00 +2°C° 0 mm 2 mps 608 mmHg 47%
    17:00 +1°C° 0 mm 2 mps 608 mmHg 49%
    18:00 -1°C° 0 mm 2 mps 609 mmHg 51%
    19:00 -2°C° 0 mm 2 mps 609 mmHg 54%
    20:00 -3°C° 0 mm 2 mps 609 mmHg 56%
    21:00 -3°C° 0 mm 2 mps 609 mmHg 57%
    22:00 -3°C° 0 mm 2 mps 609 mmHg 59%
    23:00 -4°C° 0 mm 2 mps 609 mmHg 60%

    22 January, Sunday

    Time Temperature Precipitation Wind Pressure Humidity
    00:00 -4°C° 0 mm 2 mps 609 mmHg 61%
    01:00 -4°C° 0 mm 2 mps 609 mmHg 62%
    02:00 -4°C° 0 mm 2 mps 609 mmHg 63%
    03:00 -4°C° 0 mm 2 mps 609 mmHg 64%
    04:00 -4°C° 0 mm 2 mps 609 mmHg 65%
    05:00 -5°C° 0 mm 2 mps 609 mmHg 67%
    06:00 -5°C° 0 mm 2 mps 609 mmHg 67%
    07:00 -5°C° 0 mm 2 mps 609 mmHg 67%
    08:00 -5°C° 0 mm 2 mps 609 mmHg 67%
    09:00 -3°C° 0 mm 2 mps 610 mmHg 62%
    10:00 -1°C° 0 mm 2 mps 610 mmHg 58%
    11:00 +1°C° 0 mm 2 mps 610 mmHg 53%
    12:00 +2°C° 0 mm 2 mps 610 mmHg 52%
    13:00 +2°C° 0 mm 2 mps 609 mmHg 52%
    14:00 +3°C° 0 mm 2 mps 609 mmHg 51%
    15:00 +2°C° 0.2 mm 2 mps 609 mmHg 54%
    16:00 +1°C° 0.2 mm 2 mps 609 mmHg 58%
    17:00 +1°C° 0.2 mm 2 mps 609 mmHg 62%
    18:00 -1°C° 0.1 mm 2 mps 609 mmHg 65%
    19:00 -2°C° 0.1 mm 2 mps 609 mmHg 68%
    20:00 -3°C° 0.1 mm 2 mps 609 mmHg 71%
    21:00 -3°C° 0.1 mm 2 mps 609 mmHg 71%
    22:00 -3°C° 0.1 mm 2 mps 609 mmHg 72%
    23:00 -4°C° 0.1 mm 2 mps 609 mmHg 73%

    23 January, Monday

    Time Temperature Precipitation Wind Pressure Humidity
    00:00 -4°C° 0.2 mm 2 mps 609 mmHg 74%
    01:00 -3°C° 0.2 mm 2 mps 609 mmHg 76%
    02:00 -3°C° 0.2 mm 2 mps 609 mmHg 78%
    03:00 -2°C° 0 mm 1 mps 608 mmHg 80%
    04:00 -3°C° 0 mm 1 mps 608 mmHg 82%
    05:00 -4°C° 0 mm 1 mps 607 mmHg 84%
    06:00 -4°C° 0 mm 1 mps 608 mmHg 82%
    07:00 -4°C° 0 mm 1 mps 608 mmHg 81%
    08:00 -3°C° 0 mm 1 mps 608 mmHg 79%
    09:00 -3°C° 0 mm 2 mps 609 mmHg 73%
    10:00 -1°C° 0 mm 2 mps 609 mmHg 66%
    11:00 +2°C° 0 mm 2 mps 610 mmHg 60%
    12:00 +2°C° 0.1 mm 2 mps 609 mmHg 60%
    13:00 +2°C° 0.1 mm 2 mps 609 mmHg 60%
    14:00 +3°C° 0.1 mm 2 mps 608 mmHg 60%
    15:00 +2°C° 0.1 mm 2 mps 607 mmHg 63%
    16:00 +1°C° 0.1 mm 3 mps 607 mmHg 65%
    17:00 0°C° 0.1 mm 3 mps 607 mmHg 67%
    18:00 -1°C° 0.2 mm 3 mps 607 mmHg 70%
    19:00 -1°C° 0.2 mm 2 mps 607 mmHg 74%
    20:00 -2°C° 0.2 mm 2 mps 607 mmHg 77%
    21:00 -2°C° 0.2 mm 2 mps 607 mmHg 79%
    22:00 -2°C° 0.2 mm 2 mps 607 mmHg 81%
    23:00 -2°C° 0.2 mm 2 mps 607 mmHg 83%
    Show more